• In India
  • List of Countries
  • For 7 days
  • Water Temperature
  • Satellite Maps
  • Weather Map
  • Weather Widgets
  • user-avatar
    Login

    Hourly Weather Lesniczowka

    Today, 20 February, Wednesday

    Time Temperature Precipitation Wind Pressure Humidity
    00:00 +4°C° 0.2 mm 4 mps 738 mmHg 87%
    01:00 +4°C° 0 mm 2 mps 738 mmHg 91%
    02:00 +3°C° 0.1 mm 3 mps 738 mmHg 91%
    03:00 +3°C° 0.1 mm 4 mps 738 mmHg 91%
    04:00 +1°C° 0.1 mm 4 mps 738 mmHg 91%
    05:00 +1°C° 0 mm 5 mps 738 mmHg 91%
    06:00 +1°C° 0 mm 5 mps 739 mmHg 91%
    07:00 0°C° 0 mm 5 mps 739 mmHg 92%
    08:00 +1°C° 0.1 mm 5 mps 739 mmHg 88%
    09:00 +1°C° 0.1 mm 6 mps 740 mmHg 84%
    10:00 +2°C° 0.1 mm 6 mps 740 mmHg 80%
    11:00 +2°C° 0.1 mm 6 mps 740 mmHg 77%
    12:00 +2°C° 0.1 mm 7 mps 740 mmHg 74%
    13:00 +3°C° 0.1 mm 7 mps 740 mmHg 71%
    14:00 +2°C° 0.1 mm 7 mps 741 mmHg 71%
    15:00 +2°C° 0.1 mm 7 mps 741 mmHg 70%
    16:00 +2°C° 0.1 mm 6 mps 741 mmHg 70%
    17:00 +2°C° 0 mm 6 mps 741 mmHg 73%
    18:00 +2°C° 0 mm 6 mps 741 mmHg 76%
    19:00 +1°C° 0 mm 6 mps 742 mmHg 79%
    20:00 +1°C° 0 mm 6 mps 742 mmHg 80%
    21:00 +1°C° 0 mm 5 mps 742 mmHg 81%
    22:00 +1°C° 0 mm 5 mps 742 mmHg 81%
    23:00 0°C° 0 mm 5 mps 743 mmHg 83%

    Tomorrow, 21 February, Thursday

    Time Temperature Precipitation Wind Pressure Humidity
    00:00 0°C° 0 mm 5 mps 743 mmHg 85%
    01:00 0°C° 0 mm 4 mps 743 mmHg 87%
    02:00 0°C° 0 mm 4 mps 743 mmHg 87%
    03:00 0°C° 0 mm 4 mps 743 mmHg 87%
    04:00 0°C° 0 mm 4 mps 744 mmHg 86%
    05:00 0°C° 0 mm 4 mps 744 mmHg 87%
    06:00 0°C° 0 mm 4 mps 744 mmHg 88%
    07:00 +1°C° 0 mm 3 mps 744 mmHg 89%
    08:00 0°C° 0.1 mm 4 mps 744 mmHg 89%
    09:00 +1°C° 0.1 mm 4 mps 744 mmHg 89%
    10:00 +1°C° 0.1 mm 4 mps 744 mmHg 89%
    11:00 +3°C° 0.2 mm 4 mps 744 mmHg 87%
    12:00 +4°C° 0.2 mm 4 mps 743 mmHg 85%
    13:00 +3°C° 0.2 mm 5 mps 743 mmHg 83%
    14:00 +3°C° 0.4 mm 5 mps 743 mmHg 83%
    15:00 +3°C° 0.4 mm 5 mps 742 mmHg 83%
    16:00 +4°C° 0.4 mm 4 mps 742 mmHg 83%
    17:00 +3°C° 0.7 mm 5 mps 741 mmHg 84%
    18:00 +2°C° 0.7 mm 5 mps 741 mmHg 86%
    19:00 +2°C° 0.7 mm 5 mps 741 mmHg 88%
    20:00 +2°C° 1 mm 5 mps 741 mmHg 89%
    21:00 +2°C° 1 mm 5 mps 740 mmHg 90%
    22:00 +3°C° 1 mm 4 mps 740 mmHg 91%
    23:00 +3°C° 0.4 mm 4 mps 740 mmHg 93%

    Day after tomorrow, 22 February, Friday

    Time Temperature Precipitation Wind Pressure Humidity
    00:00 +3°C° 0.4 mm 3 mps 740 mmHg 94%
    01:00 +3°C° 0.4 mm 3 mps 740 mmHg 95%
    02:00 +2°C° 0.5 mm 3 mps 740 mmHg 95%
    03:00 +1°C° 0.5 mm 4 mps 740 mmHg 95%
    04:00 +1°C° 0.5 mm 5 mps 740 mmHg 95%
    05:00 -2°C° 0.4 mm 6 mps 741 mmHg 92%
    06:00 -3°C° 0.4 mm 7 mps 742 mmHg 89%
    07:00 -6°C° 0.4 mm 8 mps 742 mmHg 86%
    08:00 -6°C° 0 mm 8 mps 744 mmHg 80%
    09:00 -6°C° 0 mm 7 mps 745 mmHg 74%
    10:00 -6°C° 0 mm 7 mps 747 mmHg 68%
    11:00 -6°C° 0 mm 7 mps 748 mmHg 66%
    12:00 -6°C° 0 mm 7 mps 749 mmHg 64%
    13:00 -6°C° 0 mm 7 mps 749 mmHg 61%
    14:00 -5°C° 0 mm 6 mps 750 mmHg 59%
    15:00 -6°C° 0 mm 6 mps 751 mmHg 58%
    16:00 -6°C° 0 mm 6 mps 751 mmHg 56%
    17:00 -8°C° 0 mm 6 mps 752 mmHg 56%
    18:00 -8°C° 0 mm 6 mps 752 mmHg 55%
    19:00 -8°C° 0 mm 5 mps 753 mmHg 55%
    20:00 -8°C° 0 mm 5 mps 753 mmHg 53%
    21:00 -8°C° 0 mm 5 mps 754 mmHg 51%
    22:00 -8°C° 0 mm 5 mps 754 mmHg 49%
    23:00 -8°C° 0 mm 5 mps 754 mmHg 48%

    23 February, Saturday

    Time Temperature Precipitation Wind Pressure Humidity
    00:00 -8°C° 0 mm 5 mps 755 mmHg 48%
    01:00 -8°C° 0 mm 5 mps 755 mmHg 47%
    02:00 -10°C° 0 mm 5 mps 755 mmHg 48%
    03:00 -10°C° 0 mm 5 mps 755 mmHg 50%
    04:00 -10°C° 0 mm 5 mps 755 mmHg 51%
    05:00 -9°C° 0 mm 4 mps 755 mmHg 52%
    06:00 -9°C° 0 mm 4 mps 756 mmHg 53%
    07:00 -9°C° 0 mm 4 mps 756 mmHg 54%
    08:00 -9°C° 0 mm 4 mps 756 mmHg 51%
    09:00 -8°C° 0 mm 4 mps 757 mmHg 47%
    10:00 -8°C° 0 mm 5 mps 757 mmHg 44%
    11:00 -7°C° 0 mm 5 mps 757 mmHg 41%
    12:00 -5°C° 0 mm 4 mps 757 mmHg 39%
    13:00 -5°C° 0 mm 4 mps 756 mmHg 36%
    14:00 -5°C° 0 mm 4 mps 756 mmHg 37%
    15:00 -5°C° 0 mm 4 mps 756 mmHg 38%
    16:00 -5°C° 0 mm 4 mps 756 mmHg 39%
    17:00 -5°C° 0 mm 4 mps 756 mmHg 42%
    18:00 -7°C° 0 mm 4 mps 756 mmHg 45%
    19:00 -6°C° 0 mm 3 mps 756 mmHg 48%
    20:00 -6°C° 0 mm 3 mps 756 mmHg 48%
    21:00 -6°C° 0 mm 3 mps 756 mmHg 49%
    22:00 -6°C° 0 mm 3 mps 756 mmHg 49%
    23:00 -6°C° 0 mm 3 mps 756 mmHg 49%

    24 February, Sunday

    Time Temperature Precipitation Wind Pressure Humidity
    00:00 -5°C° 0 mm 3 mps 756 mmHg 49%
    01:00 -4°C° 0 mm 2 mps 756 mmHg 49%
    02:00 -4°C° 0 mm 2 mps 755 mmHg 50%
    03:00 -5°C° 0 mm 3 mps 755 mmHg 51%
    04:00 -5°C° 0 mm 3 mps 755 mmHg 52%
    05:00 -5°C° 0 mm 3 mps 755 mmHg 52%
    06:00 -5°C° 0 mm 3 mps 755 mmHg 52%
    07:00 -4°C° 0 mm 2 mps 755 mmHg 52%
    08:00 -4°C° 0 mm 3 mps 754 mmHg 49%
    09:00 -4°C° 0 mm 3 mps 754 mmHg 46%
    10:00 -3°C° 0 mm 4 mps 754 mmHg 43%
    11:00 -2°C° 0 mm 4 mps 754 mmHg 44%
    12:00 -2°C° 0 mm 4 mps 754 mmHg 46%
    13:00 -1°C° 0 mm 4 mps 753 mmHg 47%
    14:00 -1°C° 0 mm 4 mps 753 mmHg 52%
    15:00 -1°C° 0 mm 4 mps 753 mmHg 56%
    16:00 0°C° 0 mm 3 mps 753 mmHg 61%
    17:00 -1°C° 0 mm 3 mps 753 mmHg 65%
    18:00 -1°C° 0 mm 3 mps 753 mmHg 69%
    19:00 -2°C° 0 mm 2 mps 753 mmHg 73%
    20:00 -2°C° 0 mm 2 mps 753 mmHg 77%
    21:00 -2°C° 0 mm 2 mps 753 mmHg 81%
    22:00 -2°C° 0 mm 2 mps 753 mmHg 85%
    23:00 -2°C° 0 mm 2 mps 753 mmHg 87%

    25 February, Monday

    Time Temperature Precipitation Wind Pressure Humidity
    00:00 -2°C° 0 mm 2 mps 753 mmHg 89%
    01:00 -1°C° 0 mm 2 mps 753 mmHg 91%
    02:00 -2°C° 0 mm 2 mps 753 mmHg 92%
    03:00 -2°C° 0 mm 2 mps 753 mmHg 92%
    04:00 -2°C° 0 mm 2 mps 752 mmHg 93%
    05:00 -2°C° 0 mm 2 mps 752 mmHg 90%
    06:00 -2°C° 0 mm 3 mps 752 mmHg 87%
    07:00 -1°C° 0 mm 3 mps 752 mmHg 84%
    08:00 -1°C° 0.1 mm 3 mps 752 mmHg 82%
    09:00 0°C° 0.1 mm 3 mps 752 mmHg 80%
    10:00 -1°C° 0.1 mm 4 mps 752 mmHg 78%
    11:00 0°C° 0 mm 4 mps 751 mmHg 73%
    12:00 +1°C° 0 mm 5 mps 751 mmHg 69%
    13:00 +2°C° 0 mm 5 mps 750 mmHg 64%
    14:00 +2°C° 0 mm 5 mps 750 mmHg 71%
    15:00 +1°C° 0 mm 5 mps 750 mmHg 77%
    16:00 +1°C° 0 mm 4 mps 750 mmHg 84%
    17:00 0°C° 0 mm 4 mps 750 mmHg 86%
    18:00 -1°C° 0 mm 4 mps 750 mmHg 87%
    19:00 -2°C° 0 mm 4 mps 750 mmHg 89%
    20:00 -2°C° 0 mm 4 mps 750 mmHg 90%
    21:00 -2°C° 0 mm 4 mps 750 mmHg 90%
    22:00 -2°C° 0 mm 4 mps 750 mmHg 90%
    23:00 -4°C° 0 mm 5 mps 750 mmHg 91%
    Show more